Regional Weather Roundup
Issued by NWS

Home | Current Version | Previous Version | Text Only | Print | Product List | Glossary Off
Versions: 1 2 3 4 5 6 7 8 9 10 11 12 13 14 15 16 17 18 19 20 21 22 23 24 25 26 27 28 29 30 31 32 33 34 35 36 37 38 39 40 41 42 43 44 45 46 47 48 49 50

000
ASUS43 KLOT 310912
RWRIL

ILLINOIS REGIONAL WEATHER ROUNDUP
NATIONAL WEATHER SERVICE CHICAGO/ROMEOVILLE IL
400 AM CDT FRI JUL 31 2015

NOTE: "FAIR" INDICATES FEW OR NO CLOUDS BELOW 12,000 FEET WITH NO
SIGNIFICANT WEATHER AND/OR OBSTRUCTIONS TO VISIBILITY.

* THESE STATIONS ARE NOT UNDER NWS QUALITY CONTROL. THEY ALSO MAY NOT
  REPORT WEATHER SUCH AS PRECIPITATION OR FOG.

ILZ001-002-007-009-015-016-024-311000-
NORTHWEST ILLINOIS

CITY           SKY/WX    TMP DP  RH WIND       PRES   REMARKS
MOLINE         CLEAR     67  63  87 SW3       30.07F
STERLING*      CLEAR     66  63  88 W6        30.03F
SAVANNA*       CLEAR     64  62  93 SE3       30.05S
$$

ILZ003-004-008-010-011-017-018-311000-
NORTH CENTRAL ILLINOIS

CITY           SKY/WX    TMP DP  RH WIND       PRES   REMARKS
ROCKFORD       PTCLDY    62  58  86 S5        30.05F
FREEPORT*      PTCLDY    64  60  86 SW8       30.06F
ROCHELLE*      CLEAR     58  58  97 S5        30.06S
DE KALB*       CLEAR     66  60  80 W6        30.06S
PERU*          CLEAR     65  63  92 W9        30.07S
$$

ILZ005-006-012>014-019>023-311000-
NORTHEAST ILLINOIS

CITY           SKY/WX    TMP DP  RH WIND       PRES   REMARKS
CHICAGO-OHARE  CLEAR     69  58  67 W6        30.02F
CHICAGO-MIDWAY CLEAR     73  57  57 W7        30.03S
AURORA         CLEAR     61  57  87 CALM      30.05F
LANSING*       CLEAR     63  60  90 CALM      30.04S
JOLIET*        CLEAR     63  62  97 CALM      30.05S
WAUKEGAN       CLEAR     68  58  70 CALM      30.01S
DUPAGE AIRPORT CLEAR     66  58  75 W5        30.04S
KANKAKEE*      CLEAR     65  64  94 CALM      30.06F
WHEELING       CLEAR     71  56  58 W6        30.03F
MORRIS*        CLEAR     64  61  92 W5        30.04S
ROMEOVILLE*    CLEAR     66  59  78 W3        30.05S
NORTHERLY ISL    N/A     74  57  55 W8          N/A
$$

LMZ740>746-311000-
SOUTHERN LAKE MICHIGAN

STATION/POSITION SKY/WX   TEMP    WIND        PRES    VSBY  WAVE
                          AIR SEA DIR/SP/G                  HT/PER
                          (F)     (DEG/KT/KT) (MB)    (MI)  (FT/S)
HARRISON CRIB              76     280/ 12/ 15   N/A
BURNHAM HARBOR             73     270/  5/ 11   N/A
CALUMET HARBOR             73     260/  2/  4   N/A
BURNS HARBOR               75     260/ 10/ 11 1017.3S
MICHIGAN CITY              75     250/ 12/ 14   N/A
MICHIGAN CITY 6N           75 74  290/ 10/ 12   N/A           2/ 3
ST. JOSEPH                 74 74  310/ 12/ 14   N/A           2/ 3
$$

ILZ025>027-034>036-040-047-049-050-058-095>099-311000-
WEST-CENTRAL ILLINOIS

CITY           SKY/WX    TMP DP  RH WIND       PRES   REMARKS
QUINCY         PTCLDY    70  64  81 W5        30.12F
GALESBURG*     CLEAR     62  61  96 CALM      30.10S
MACOMB*        CLEAR     67  65  93 W5        30.13S
JACKSONVILLE*  CLEAR     69  65  89 W6        30.10F
PITTSFIELD*    PTCLDY    71  64  79 W3        30.13S
$$

ILZ028>032-037-038-041>044-048-051>054-059>061-311000-
CENTRAL ILLINOIS

CITY           SKY/WX    TMP DP  RH WIND       PRES   REMARKS
PONTIAC        CLEAR     66  65  97 SW3       30.08F
BLOOMINGTON    CLEAR     69  66  90 W8        30.10F
DECATUR        CLEAR     73  65  75 W8        30.09F
PEORIA         CLEAR     71  63  75 W5        30.09S
LACON*         CLEAR     66  64  92 CALM      30.07S
LINCOLN*       CLEAR     72  65  79 W5        30.09S
SPRINGFIELD    CLEAR     65  63  93 W5        30.10F
TAYLORVILLE    CLEAR     63  63 100 W3        30.10S
$$

ILZ033-039-045-046-055>057-062-063-311000-
EAST-CENTRAL ILLINOIS

CITY           SKY/WX    TMP DP  RH WIND       PRES   REMARKS
CHAMPAIGN      CLEAR     65  63  93 W5        30.09S
DANVILLE*      CLEAR     65  63  95 W5        30.05S
RANTOUL*       CLEAR     66  65  94 W6        30.08S
MATTOON        CLEAR     68  63  84 NW7       30.08F
PARIS*         CLEAR     64  63  97 NW3       30.08F
$$

ILZ079-100>102-311000-
SOUTHWEST ILLINOIS

CITY           SKY/WX    TMP DP  RH WIND       PRES   REMARKS
ALTON          CLEAR     66  63  90 NW3       30.11S
BELLEVILLE     CLEAR     67  67  98 NW7       30.09S
CAHOKIA*       CLEAR     72  65  78 SW3       30.10F
SPARTA*        CLEAR     69  66  89 W5        30.11S
$$

ILZ064>066-069>071-074>076-080>082-084>086-088>090-092>094-311000-
SOUTH-CENTRAL ILLINOIS

CITY           SKY/WX    TMP DP  RH WIND       PRES   REMARKS
CARBONDALE     CLEAR     68  66  93 CALM      30.09F
CAIRO*         CLEAR     68  66  93 W3        30.09S
EFFINGHAM*     CLEAR     69  62  79 W5        30.09F
MARION         CLEAR     68  66  94 CALM      30.10S
MT. VERNON     CLEAR     64  61  88 CALM      30.09F
CENTRALIA*     CLEAR     71  62  73 NW6       30.09F
SALEM*         CLEAR     71  65  80 NW3       30.10S
METROPOLIS*    CLEAR     66  66 100 CALM      30.09S
$$

ILZ067-068-072-073-078-083-087-091-311000-
SOUTHEAST ILLINOIS

CITY           SKY/WX    TMP DP  RH WIND       PRES   REMARKS
LAWRENCEVILLE  CLEAR     68  64  87 NW5       30.07F
FLORA*         CLEAR     71  63  76 NW6       30.08F
FAIRFIELD*     CLEAR     71  64  77 NW3       30.07F
HARRISBURG*    CLEAR     66  66 100 CALM      30.09S
ROBINSON*      CLEAR     65  63  94 NW5       30.08S
CARMI*         CLEAR     66  60  81 CALM      30.07S
$$

ABBREVIATIONS USED IN REMARKS
   TC - TEMPERATURE IN CELSIUS
  WCI - WIND CHILL INDEX
   HX - HEAT INDEX
  VSB - VISIBILITY
$$




USA.gov is the U.S. government's official web portal to all federal, state and local government web resources and services.